Location: Cheshunt
(51.7000°N, 0.0333°W)
Time: 05:08:22
(UTC+00:00)

Daily predictions for brighter satellites

Satellite Brightness Start Highest point End
(mag) Time Altitude Azimuth Time Altitude Azimuth Time Altitude Azimuth
IDEFIX/ARIANE 42P 4.5 02:33:07 10° NNE 02:35:46 26° NE 02:35:46 26° NE
USA 234 3.8 02:36:19 10° ENE 02:41:14 55° ENE 02:41:14 55° ENE
ADEOS Rocket 4.1 02:51:12 10° SE 02:56:09 36° ENE 03:01:15 10° N
Cosmos 2344 4.1 02:56:53 44° SE 02:58:00 47° ESE 03:05:33 10° NE
Cosmos 1697 Rocket 4.2 03:03:55 24° N 03:06:22 33° NE 03:11:27 10° ESE
NOSS 3-2 (C) 4.4 03:21:46 34° SE 03:22:57 38° ESE 03:28:51 10° NE
MSX 4.0 03:20:59 10° NNE 03:26:44 68° ESE 03:26:50 68° ESE
SL-16 R/B 4.2 03:28:04 17° NNW 03:28:04 17° NNW 03:30:41 10° NNE
Cosmos 44 Rocket 4.3 03:29:13 43° ESE 03:29:13 43° ESE 03:32:45 10° SE
Cosmos 1980 Rocket 3.9 03:23:46 12° NNW 03:28:02 29° NE 03:32:52 10° E
CZ-4B R/B 4.2 03:27:35 10° ESE 03:30:00 18° ENE 03:30:16 18° NE
ADEOS II 3.9 03:27:32 10° N 03:29:27 21° N 03:29:27 21° N
CENTAUR R/B 3.3 03:35:39 36° SSE 03:37:35 47° ESE 03:44:19 10° NE
ARIANE 5 R/B 3.7 03:33:25 10° N 03:36:09 32° N 03:36:09 32° N
Tsikada Rocket 4.2 03:42:59 55° NNW 03:42:59 55° NNW 03:48:05 10° N
Resurs 1-4 Rocket 4.4 03:40:22 10° NNW 03:41:00 12° NNW 03:41:00 12° NNW
ERS-2 4.2 03:45:54 10° SE 03:47:31 23° ESE 03:47:31 23° ESE
CZ-2D R/B 4.4 03:53:17 10° NNW 03:53:32 11° NNW 03:53:32 11° NNW
ALOS 4.3 03:53:01 10° NE 03:57:01 27° E 04:00:59 10° SSE
Cosmos 2180 Rocket 4.5 03:51:31 10° N 03:57:52 82° E 04:04:05 10° SSE
CZ-2C R/B 4.4 03:57:22 10° N 03:59:22 28° N 03:59:22 28° N
CZ-2C R/B 2.7 03:59:39 10° NNE 04:04:42 68° ESE 04:07:18 28° S
ISS -0.9 04:07:10 12° SE 04:07:35 12° SE 04:09:02 10° ESE
Cosmos 2142 Rocket 4.4 04:02:06 10° NNW 04:08:14 63° W 04:14:26 10° S
Lacrosse 4 Rocket 2.4 04:08:01 37° SSE 04:08:51 42° ESE 04:12:43 10° NE
USA 238 DEB 3.6 04:07:03 46° SW 04:09:17 89° ESE 04:16:18 10° NE
USA 238 3.6 04:07:08 46° SW 04:09:22 89° SE 04:16:24 10° NE
GP-B 3.5 04:10:49 50° NNW 04:10:49 50° NNW 04:14:10 10° N
PAYLOAD A 4.0 04:04:39 10° NNE 04:09:44 83° ESE 04:12:20 31° S
Cosmos 1833 Rocket 4.0 04:05:13 10° S 04:10:22 38° ESE 04:15:34 10° NE
In-Cosmos 22 4.0 04:09:21 34° S 04:11:46 88° E 04:17:16 10° NNE
NOSS 3-2 (A) 3.3 04:11:54 53° WSW 04:13:28 81° NW 04:20:17 10° NE
Cosmos 1302 Rocket 3.9 04:12:04 44° NW 04:13:46 74° WSW 04:19:02 10° SSE
Cosmos 1025 Rocket 3.0 04:14:23 69° NNW 04:14:23 69° NNW 04:18:22 10° N
Spot 4 Rocket 4.4 04:09:31 10° N 04:13:48 46° NW 04:13:48 46° NW
Cosmos 1048 Rocket 4.2 04:15:06 52° NW 04:15:06 52° NW 04:20:17 10° NNE
Cosmos 1484 Rocket 4.4 04:12:16 10° NNE 04:15:50 34° E 04:19:20 10° SSE
Cosmos 1674 2.9 04:16:30 65° SE 04:16:48 69° E 04:20:36 10° NNE
IDEFIX/ARIANE 42P 3.4 04:12:46 10° N 04:16:33 35° NW 04:16:33 35° NW
Cosmos 2369 3.8 04:12:59 14° NNW 04:17:56 75° ENE 04:23:35 10° SE
Cosmos 2228 4.0 04:14:08 10° N 04:18:22 48° ENE 04:22:36 10° SSE
Cosmos 1269 Rocket 4.2 04:15:37 26° S 04:18:38 74° ESE 04:23:58 10° NNE
Cosmos 494 Rocket 4.0 04:22:51 54° WSW 04:23:39 62° WNW 04:28:55 10° NNE
ATLAS 3B R/B 4.1 04:18:08 10° S 04:23:54 34° ESE 04:29:45 10° NE
Geosat 3.9 04:19:00 10° SSE 04:24:00 67° WSW 04:25:54 38° NW
Meteor 1-16 Rocket 4.0 04:18:57 10° NNW 04:24:11 59° W 04:29:24 10° S
USA 234 3.5 04:19:22 10° ENE 04:25:47 60° N 04:28:35 35° WNW
Cosmos 1626 3.6 04:22:35 10° SSE 04:26:01 38° E 04:29:30 10° NNE
Cosmos 2082 Rocket 4.0 04:24:08 10° SSE 04:29:00 31° ESE 04:33:53 10° NE
COSMO-SKYMED 1 3.7 04:27:04 10° SE 04:31:11 44° ENE 04:35:20 10° N
Cosmos 1656 3.9 04:31:28 40° WNW 04:32:52 48° WSW 04:38:18 10° S
SL-16 R/B 4.0 04:28:24 10° NNW 04:33:19 29° NE 04:38:12 10° E
Cosmos 2279 Rocket 4.1 04:27:47 10° NNW 04:33:42 48° W 04:39:35 10° SSW
Lacrosse 5 rocket 2.9 04:35:54 17° S 04:37:55 27° SE 04:41:10 10° ENE
Meteor 2-5 Rocket 4.3 04:33:59 10° S 04:39:34 60° E 04:45:18 10° NNE
Meteor 1-31 Rocket 3.9 04:36:07 10° NNE 04:39:56 45° E 04:43:43 10° S
ADEOS Rocket 3.0 04:36:30 10° SSW 04:41:41 42° W 04:47:01 10° NNW
CREW DRAGON DEMO-1 DEB 2.8 04:42:58 78° ESE 04:42:58 78° ESE 04:45:49 10° E
SJ-6F 4.3 04:40:09 10° NNE 04:44:16 88° ESE 04:48:22 10° SSW
COSMOS 2406 3.2 04:41:41 10° SSW 04:47:18 84° ESE 04:53:00 10° NNE
Cosmos 2058 Rocket 4.1 04:45:49 10° N 04:50:14 49° ENE 04:54:35 10° SSE
Cosmos 220 Rocket 3.9 04:46:38 14° NNW 04:50:31 76° WSW 04:54:56 10° SSE
Cosmos 1536 Rocket 3.8 04:49:09 34° SW 04:50:40 47° WNW 04:55:02 10° N
Cosmos 1697 Rocket 2.7 04:45:44 13° NW 04:50:41 60° WSW 04:56:15 10° SSE
deb Chang Zheng 4 3.8 04:46:39 10° NNE 04:50:54 68° ESE 04:55:08 10° S
Cosmos 1992 Rocket 3.9 04:49:29 10° NNW 04:54:43 79° WSW 04:59:56 10° SSE
Cosmos 2360 Rocket 4.2 04:55:54 10° NNW 05:00:26 24° NE 05:04:56 10° E
CZ-4B R/B 1.7 04:58:39 10° S 05:01:59 43° W 05:03:23 27° NW
FENGYUN 3A 3.6 04:59:03 10° NNE 05:04:32 84° WNW 05:09:59 10° SSW
Cosmos 1892 Rocket 4.2 05:01:03 10° S 05:05:18 57° E 05:09:38 10° NNE
Cosmos 1400 Rocket 2.7 05:02:49 10° NNW 05:06:50 89° E 05:10:44 10° SSE
Cosmos 44 Rocket 4.4 05:08:01 24° W 05:08:44 25° WSW 05:12:54 10° SSW
PSLV R/B 4.3 05:07:43 10° N 05:11:31 31° WNW 05:13:12 23° WSW
Cosmos 2344 3.8 05:06:55 20° WSW 05:12:16 57° NNW 05:20:51 10° NE
Cosmos 1980 Rocket 2.1 05:06:59 10° NNW 05:12:35 72° WSW 05:18:09 10° SSE
NOSS 3-2 (C) 3.6 05:09:15 19° WSW 05:13:32 62° NW 05:20:22 10° NE
SL-16 R/B 4.5 05:12:28 10° NNW 05:13:35 10° N 05:14:41 10° N
ARIANE 5 R/B 4.3 05:14:16 10° NNW 05:16:29 13° NW 05:16:29 13° NW
SL-19 R/B 3.4 05:14:15 10° NNE 05:17:06 89° WNW 05:19:56 10° SSW
Cosmos 2251 Rocket 3.9 05:13:41 10° SSW 05:19:01 71° ESE 05:24:21 10° NNE
SKYMED 2 3.5 05:14:53 10° S 05:19:13 68° WSW 05:23:34 10° NNW
SJ-12 4.0 05:15:21 10° NNE 05:19:30 80° E 05:23:37 10° SSW
MOS 1 Rocket 4.4 05:18:44 10° SE 05:22:47 42° ENE 05:26:52 10° N
ERS-2 3.6 05:20:12 10° SW 05:22:05 19° WSW 05:22:05 19° WSW
Cosmos 1461 3.4 05:22:52 10° SSW 05:27:25 73° SE 05:32:10 10° NE
Cosmos 2219 Rocket 4.4 05:23:37 10° NNW 05:27:35 19° NNE 05:31:31 10° ENE
CENTAUR R/B 2.9 05:22:52 15° WSW 05:28:11 57° NNW 05:35:37 10° NE
SAR-Lupe-4 4.3 05:25:44 10° SSW 05:28:58 32° W 05:32:13 10° NNW
SL-14 R/B 3.5 05:30:20 10° SSW 05:34:11 47° WNW 05:38:06 10° N
ALOS 2.6 05:30:10 10° N 05:34:37 45° WNW 05:39:03 10° SW
Cosmos 1315 Rocket 3.3 05:31:51 10° N 05:35:58 68° ENE 05:40:03 10° SSE
Cosmos 2278 4.0 05:33:28 10° NW 05:38:52 46° WSW 05:44:14 10° S
Abrixas rocket 3.4 05:38:01 15° WSW 05:39:36 24° SSW 05:41:58 10° SE
Cosmos 1300 3.4 05:36:52 10° NNW 05:40:18 31° W 05:43:42 10° SSW
Aureole 3 3.6 05:37:46 10° NNW 05:41:31 52° W 05:46:12 10° S
CZ-2C R/B 3.6 05:38:36 10° N 05:42:28 22° WNW 05:46:13 10° WSW
Elektron 1 4.2 05:39:49 10° SW 05:42:47 59° SE 05:45:48 10° NE
Cosmos 1726 Rocket 4.1 05:38:55 10° NNW 05:43:00 36° W 05:47:04 10° SSW
Cosmos 1092 Rocket 4.0 05:36:56 10° SSW 05:43:01 60° WNW 05:49:13 10° N
Cosmos 2322 Rocket 2.8 05:37:35 10° NNW 05:43:13 58° NE 05:48:48 10° SE
ISS -2.8 05:40:30 10° SW 05:43:45 45° SSE 05:46:59 10° E
Cosmos 1689 Rocket 3.0 05:41:26 10° SSW 05:44:01 27° W 05:46:36 10° NW
PSLV R/B 4.4 05:41:30 10° S 05:45:30 41° W 05:49:32 10° NNW
ADEOS 4.0 05:41:50 10° N 05:46:42 40° WNW 05:51:32 10° SW
USA 290 2.1 05:44:17 10° SW 05:47:29 66° WNW 05:50:44 10° NNE
Lacrosse 4 Rocket 2.2 05:44:23 12° WSW 05:47:39 30° NW 05:51:18 10° NNE
Nadezhda 4 Rocket 4.5 05:44:01 10° SW 05:49:38 37° WNW 05:55:18 10° N
Cosmos 1484 Rocket 3.7 05:46:50 10° N 05:50:09 26° WNW 05:53:23 10° WSW
Cosmos 2098 Rocket 4.2 05:45:26 10° S 05:51:26 65° E 05:56:13 10° NNE
Cosmos 1674 4.5 05:51:24 12° W 05:52:47 14° WNW 05:54:46 10° NNW
Cosmos 1833 Rocket 3.0 05:48:47 10° SW 05:54:14 47° NW 05:59:43 10° NNE
Cosmos 2228 4.2 05:52:18 10° NW 05:55:37 21° W 05:58:56 10° SW
CZ-4B R/B 3.1 05:54:08 10° N 05:57:57 49° WNW 06:01:56 10° SW
Meteor 1-24 Rocket 4.0 05:53:56 10° SW 05:59:23 48° WNW 06:05:04 10° N
H-2A R/B 2.7 05:56:18 10° NNE 06:00:07 90° E 06:03:58 10° SSW
S3M 4.1 05:54:05 10° N 06:00:24 90° ESE 06:06:45 10° S
USA 238 DEB 4.4 05:54:42 10° W 06:01:01 39° NNW 06:07:38 10° NE
USA 238 4.4 05:54:47 10° W 06:01:06 40° NNW 06:07:44 10° NE
Cosmos 1626 3.4 05:58:37 10° WSW 06:01:26 20° WNW 06:04:16 10° NNW
Envisat 3.7 05:56:23 10° NNE 06:01:27 62° ESE 06:06:28 10° S
Meteor 2-10 Rocket 3.4 05:56:42 10° NNW 06:01:40 63° W 06:06:38 10° S
NOSS 3-2 (A) 4.4 05:59:35 10° W 06:05:18 36° NNW 06:11:52 10° NE
COSMO-SKYMED 1 3.6 06:03:57 10° SSW 06:07:32 25° W 06:11:08 10° NW
USA 234 3.6 06:02:00 10° E 06:08:25 61° N 06:14:51 10° WNW
Cosmos 407 Rocket 4.0 06:04:02 10° S 06:09:05 65° ESE 06:14:14 10° NNE
CZ-4B DEB 4.4 06:06:40 10° NNE 06:12:13 82° ESE 06:17:42 10° SSW
Cosmos 2082 Rocket 2.3 06:07:20 10° SW 06:12:50 55° NW 06:18:23 10° NNE
